Regional Weather Roundup
Issued by NWS

Home | Current Version | Previous Version | Graphics & Text | Print | Product List | Glossary On
Versions: 1 2 3 4 5 6 7 8 9 10 11 12 13 14 15 16 17 18 19 20 21 22 23 24 25 26 27
000
ASUS45 KSLC 191310
RWRUT

UTAH REGIONAL WEATHER ROUNDUP
NATIONAL WEATHER SERVICE SALT LAKE CITY UT
700 AM MDT SAT MAY 19 2018

UTZ001>011-023>025-191400-

NORTHERN UTAH

CITY           SKY/WX    TMP DP  RH WIND       PRES   REMARKS
BRIGHAM CITY   PTCLDY    50  44  79 NW6       30.00R
DUGWAY         PTCLDY    46  39  77 SE3       30.00R
HILL AFB       CLEAR     52  41  65 E14G23    29.99S
LOGAN          PTCLDY    49  46  90 N3        30.01R
OGDEN          CLEAR     52  42  69 S5        29.98R
SALT LAKE CITY PTCLDY    56  44  64 S6        29.97S
TOOELE VALLEY  CLEAR     45  43  93 S8        29.99S
WENDOVER       PTCLDY    54  44  69 CALM      30.00
HEBER CITY       N/A     37  36  93 CALM      30.05S
WEST JORDAN    CLEAR     49  45  85 CALM      30.00S

$$

UTZ011>015-024>027-191400-

CENTRAL/NORTHEAST UTAH

CITY           SKY/WX    TMP DP  RH WIND       PRES   REMARKS
PROVO AIRPORT  PTCLDY    48  40  73 SE8       30.02
MOAB/CANYONLAN CLEAR     55  32  41 W5        29.93R
DELTA          CLEAR     46  41  81 SE3       30.00R
PRICE          CLEAR     51  35  54 N5        30.00S
ROOSEVELT      CLEAR     45  34  65 SW5       30.05S
VERNAL         SUNNY     48  38  68 W3        30.03R

$$

UTZ013>016-019>022-027-191400-

SOUTHERN UTAH

CITY           SKY/WX    TMP DP  RH WIND       PRES   REMARKS
BRYCE CANYON   CLEAR     34  28  79 W8        30.11R WCI  27
CEDAR CITY     PTCLDY    44  35  70 SE5       30.01R
MILFORD        MOCLDY    48  38  68 CALM      30.00R
ST GEORGE      SUNNY     63  31  30 E13       29.88R
HANKSVILLE     CLEAR     50  30  46 CALM      29.97S
BLANDING         N/A     51  30  45 N5        30.06S

$$

REGIONAL REPORTS     COLORADO/ARIZONA

CITY           SKY/WX    TMP DP  RH WIND       PRES   REMARKS
CRAIG, CO      PTSUNNY   42  39  89 SW3       30.06R
GRAND JUNCTION SUNNY     52  33  48 CALM      29.95R
RIFLE, CO      SUNNY     46  35  65 E7        30.01R
MONTROSE, CO   MOSUNNY   46  26  45 S8        30.02R
CORTEZ, CO     CLEAR     41  27  57 E7        30.02R
COLORADO CITY    N/A     43  32  65 SE5       30.00R
PAGE, AZ       CLEAR     62  31  31 SE3       29.94R
GRAND CANYON   CLEAR     35  16  45 CALM      30.06S
KINGMAN, AZ    CLEAR     63  22  20 SE14      29.88R
FLAGSTAFF, AZ  CLEAR     35  16  45 CALM      30.07S

$$

REGIONAL REPORTS    NEVADA/IDAHO/WYOMING

CITY           SKY/WX    TMP DP  RH WIND       PRES   REMARKS
LAS VEGAS, NV  PTCLDY    71  36  27 S5        29.79R
ELY, NY        PTCLDY    36  33  89 S9        30.07R WCI  29
ELKO, NV       CLEAR     40  38  93 S5        30.02S FOG
POCATELLO, ID  MOCLDY    47  45  93 NE3       30.02S
BURLEY, ID     CLEAR     50  44  80 NE5       29.99S
FORT BRIDGER,  CLOUDY    44  44 100 E10       30.14F
EVANSTON, WY   CLEAR     43  41  93 E14       30.10S
ROCK SPRINGS,  CLOUDY    42  38  85 NE13      30.13R
KEMMERER, WY   MOCLDY    41  39  93 NE9       30.14S

$$




USA.gov is the U.S. government's official web portal to all federal, state and local government web resources and services.